This is the latest recevied weather packets stored in our database for station/object SV9FBP. If no packets are shown the sender has not sent any weather packets the latest 10 day(s).
| Time | Temp. | Humidity | Pressure | Rain* | Wind** | Luminosity | Snow |
|---|---|---|---|---|---|---|---|
| 1777731970 | 15.56° C | 52% | 1010.7 hPa | 0 mm | - | - | - |
| 1777731068 | 16.11° C | 52% | 1010.5 hPa | 0 mm | - | - | - |
| 1777730166 | 16.11° C | 53% | 1010.5 hPa | 0 mm | - | - | - |
| 1777729264 | 16.11° C | 52% | 1010.6 hPa | 0 mm | - | - | - |
| 1777728362 | 16.11° C | 52% | 1010.8 hPa | 0 mm | - | - | - |
| 1777727459 | 16.11° C | 51% | 1010.8 hPa | 0 mm | - | - | - |
| 1777726557 | 16.11° C | 52% | 1010.9 hPa | 0 mm | - | - | - |
| 1777725655 | 16.11° C | 52% | 1011 hPa | 0 mm | - | - | - |
| 1777724753 | 16.67° C | 54% | 1011.3 hPa | 0 mm | - | - | - |
| 1777723852 | 16.67° C | 54% | 1011.6 hPa | 0 mm | - | - | - |
| 1777722949 | 16.67° C | 54% | 1011.5 hPa | 0 mm | - | - | - |
| 1777722047 | 16.67° C | 54% | 1011.4 hPa | 0 mm | - | - | - |
| 1777721145 | 16.67° C | 55% | 1011.5 hPa | 0 mm | - | - | - |
| 1777720242 | 16.67° C | 54% | 1011.5 hPa | 0 mm | - | - | - |
| 1777719340 | 16.67° C | 54% | 1011.4 hPa | 0 mm | - | - | - |
| 1777718438 | 16.11° C | 58% | 1011.6 hPa | 0 mm | - | - | - |
| 1777717536 | 16.11° C | 59% | 1011.8 hPa | 0 mm | - | - | - |
| 1777716635 | 16.11° C | 60% | 1011.9 hPa | 0 mm | - | - | - |
| 1777715732 | 15.56° C | 60% | 1012 hPa | 0 mm | - | - | - |
| 1777714830 | 15.56° C | 61% | 1012 hPa | 0 mm | - | - | - |
| 1777713927 | 15° C | 62% | 1011.8 hPa | 0 mm | - | - | - |
| 1777713025 | 14.44° C | 62% | 1012.2 hPa | 0 mm | - | - | - |
| 1777712123 | 15° C | 59% | 1012.1 hPa | 0 mm | - | - | - |
| 1777711221 | 15.56° C | 55% | 1012.1 hPa | 0 mm | - | - | - |
| 1777710319 | 15.56° C | 55% | 1012.1 hPa | 0 mm | - | - | - |
* Rain latest hour (hover to see other rain measurements)
** Current wind speed in m/s (hover to see current wind gust speed)